[[{"header":{"parameterUnit":"m.s-1","parameterCategory":1,"la1":30.2991,"la2":30.254,"lo1":-89.0895,"lo2":-89.0444,"dy":0.0017,"dx":0.0017,"nx":28,"ny":28,"refTime":"2023-08-06T09:00:00:Z","depth":0,"parameterNumber":2,"parameterNumberName":"U-component_of_WINDS"},"data":[0,0,0,0,0,0,0,0,0,0,0,0,0,0,0,0,0,0,0,0,0,0,0,0,0,0,0,0,0,0,0,0,0,0,0,0,0,0,0,0,0,0,0,0,0,0,0,0,0,0,0,0,0,0,0,0,0,0,4.667,4.6671,0,4.673,4.673,4.6731,4.6617,4.6613,4.6609,4.6606,4.6668,4.6673,4.6678,0,0,0,0,0,0,0,0,0,0,0,0,0,4.6456,4.6461,4.667,4.6671,4.6672,4.6729,4.673,4.6731,4.6618,4.6613,4.6609,4.6604,4.6666,4.6672,4.6679,0,0,0,0,0,0,0,0,0,0,0,0,0,4.6536,4.6462,4.667,4.6622,4.6618,4.6729,4.673,4.6731,4.6619,4.6613,4.6607,4.6602,4.6664,4.6672,4.6679,4.684,0,0,4.6703,4.6706,0,0,0,0,0,0,0,0,4.6531,4.6544,4.6628,4.6625,4.6621,4.666,4.6677,4.6768,4.662,4.6619,4.6606,4.6599,4.667,4.6677,4.6701,4.6843,4.6846,4.6704,4.6708,4.6712,4.6714,0,0,0,0,0,0,0,4.6526,4.6541,4.6694,4.663,4.6625,4.6597,4.6602,4.6694,4.6675,4.6618,4.661,4.6619,4.6667,4.6693,4.6701,4.6847,4.6704,4.671,4.6715,4.6718,4.7119,4.7125,0,0,0,0,0,0,4.6527,4.6537,4.6692,4.6695,4.6562,4.6605,4.6611,4.6653,4.6674,4.6672,4.6623,4.6613,4.6683,4.6692,4.6703,4.6889,4.6712,4.6719,4.6723,4.7113,4.7121,4.7127,0,0,0,0,0,0,4.6523,4.6542,4.6689,4.6614,4.663,4.6615,4.6664,4.6658,4.6684,4.6678,4.6674,4.6654,4.6679,4.6692,4.6806,4.6889,4.6723,4.673,4.7106,4.7116,4.7124,4.7264,0,0,0,0,0,0,4.6517,4.6541,4.6602,4.6616,4.6635,4.6792,4.6669,4.6663,4.6697,4.6684,4.6705,4.6703,4.6675,4.6795,4.6814,4.6897,4.6736,4.7099,4.7111,4.7121,4.7252,4.7277,4.7298,0,0,0,0,0,4.651,4.6641,4.6606,4.6626,4.6712,4.6797,4.6808,4.6773,4.6705,4.6765,4.6761,4.6703,4.6878,4.6807,4.6828,4.6915,4.7093,4.7107,4.712,4.7242,4.7272,4.7298,0,0,0,0,0,0,4.6639,4.6642,4.6603,4.6743,4.6771,4.6778,4.6854,4.6807,4.6855,4.6841,4.6795,4.6801,4.6923,4.6931,4.6852,4.7069,4.6974,4.6992,4.7059,4.7088,4.7111,4.7105,4.6742,0,0,0,0,0,4.6683,4.6753,4.6752,4.6875,4.6891,4.687,4.6906,4.6877,4.6903,4.6915,4.6919,4.6947,4.7007,4.7049,4.7105,4.7253,4.7254,4.7323,4.7346,4.7365,4.738,4.7455,4.7484,4.7172,4.7172,4.7171,0,0,4.6776,4.6787,4.6834,4.6901,4.6919,4.699,4.6881,4.6963,4.7014,4.6927,4.7033,4.7038,4.7066,4.7196,4.7254,4.7206,4.7467,4.7382,4.7397,4.7402,4.7472,4.7501,4.7528,4.7181,4.7179,4.7178,0,0,4.6981,4.6998,4.71,4.7119,4.7147,4.7132,4.7157,4.7171,4.7169,4.7275,4.721,4.7271,4.7379,4.7399,4.7425,4.7635,4.7581,4.7654,4.7774,4.7847,4.7872,4.7893,4.7964,4.7991,4.767,4.7671,4.7671,0,4.7093,4.7198,4.7159,4.7243,4.7273,4.7196,4.7298,4.7319,4.7365,4.7386,4.7332,4.7462,4.7476,4.7608,4.7659,4.7683,4.7708,4.7651,4.7872,4.7893,4.7912,4.7979,4.8007,4.7679,4.7678,4.7677,4.7677,0,4.7332,4.7407,4.7486,4.7529,4.7568,4.7662,4.7634,4.7679,4.7646,4.7636,4.7743,4.7757,4.7812,4.7842,4.7811,4.7969,4.7938,4.7879,4.7782,4.7951,4.8013,4.8039,4.7691,4.7688,4.7686,4.7684,0,0,4.762,4.7638,4.7668,4.7684,4.7708,4.7764,4.7853,4.7906,4.7943,4.7977,4.8048,4.8139,4.8083,4.8111,4.8082,4.8147,4.8307,4.8079,4.8079,4.8118,4.8477,4.8519,4.855,4.8273,4.8278,4.8281,4.8473,0,4.782,4.7971,4.7937,4.8086,4.8151,4.8078,4.8155,4.8177,4.817,4.8224,4.8217,4.828,4.8204,4.8219,4.8281,4.8275,4.8378,4.8261,4.8336,4.8339,4.8328,4.8583,4.8628,4.8808,4.8498,4.8502,4.8505,0,4.8074,4.8114,4.8269,4.8278,4.8305,4.8374,4.8418,4.8472,4.8494,4.8484,4.8515,4.8472,4.8557,4.8462,4.8577,4.8498,4.8527,4.8528,4.8534,4.8538,4.843,4.8589,4.8866,4.8891,4.8544,4.8541,4.8538,0,4.8262,4.8357,4.846,4.8477,4.8492,4.8542,4.855,4.8568,4.86,4.8639,4.8659,4.8708,4.8734,4.8773,4.8743,4.8677,4.8862,4.8765,4.8854,4.8855,4.8894,4.8892,4.9176,4.8919,4.8919,4.8918,4.8918,0,4.8487,4.8584,4.8544,4.8608,4.8713,4.8672,4.8777,4.8777,4.8793,4.8853,4.8795,4.8853,4.8813,4.8867,4.8845,4.8942,4.8955,4.8948,4.894,4.8951,4.8952,4.8967,4.8953,4.8926,4.8924,4.8923,4.8921,0,4.8715,4.8693,4.88,4.8805,4.8808,4.8885,4.8888,4.8946,4.8934,4.9012,4.9028,4.9009,4.907,4.9045,4.9111,4.9095,4.9218,4.9196,4.921,4.9203,4.9292,4.9283,4.9593,4.963,4.9354,4.9356,4.9359,0,4.8858,4.893,4.8941,4.8977,4.899,4.9049,4.9082,4.9044,4.908,4.9109,4.9163,4.9219,4.9261,4.9362,4.9353,4.9402,4.9378,4.9484,4.9385,4.9392,4.9375,4.937,4.9375,4.9503,4.9506,4.9509,4.9511,0,4.9113,4.9097,4.9146,4.9191,4.9231,4.9265,4.9293,4.9326,4.9289,4.9332,4.9393,4.9426,4.9491,4.9546,4.9588,4.9596,4.9546,4.9542,4.9564,4.9575,4.9578,4.9573,4.926,4.9534,4.9532,4.953,4.9529,4.9528,4.9299,4.9358,4.9375,4.943,4.9447,4.9474,4.9528,4.9522,4.9572,4.9621,4.9596,4.9666,4.9683,4.9735,4.9749,4.9802,4.9761,4.9795,4.9802,4.981,4.982,4.9573,4.9811,4.981,4.9809,4.9809,4.9808,0,4.9547,4.9554,4.9605,4.9645,4.9689,4.9639,4.9667,4.9706,4.9768,4.9789,4.9831,4.9899,4.9951,4.9947,4.9994,5.0037,5.0016,5.0051,5.0045,5.0047,4.9857,4.983,5.0067,5.0067,5.0067,5.0067,5.0067,5.0067,4.9681,4.9777,4.9763,4.9866,4.9872,4.9939,4.9959,4.9983,4.9998,5.0077,5.0119,5.0116,5.0126,5.0173,5.0218,5.0215,5.0234,5.0277,5.0265,5.0087,5.0061,5.0036,5.0011,5.0282,5.0282,5.045,5.0452,5.0453]},{"header":{"parameterUnit":"m.s-1","parameterCategory":1,"la1":30.2991,"la2":30.254,"lo1":-89.0895,"lo2":-89.0444,"dy":0.0017,"dx":0.0017,"nx":28,"ny":28,"refTime":"2023-08-06T09:00:00:Z","depth":0,"parameterNumber":3,"parameterNumberName":"V-component_of_WINDS"},"data":[0,0,0,0,0,0,0,0,0,0,0,0,0,0,0,0,0,0,0,0,0,0,0,0,0,0,0,0,0,0,0,0,0,0,0,0,0,0,0,0,0,0,0,0,0,0,0,0,0,0,0,0,0,0,0,0,0,0,6.807,6.8072,0,6.8199,6.82,6.8202,6.8165,6.8163,6.816,6.8158,6.8282,6.8288,6.8293,0,0,0,0,0,0,0,0,0,0,0,0,0,6.7783,6.7789,6.807,6.8072,6.8073,6.8199,6.8201,6.8202,6.8166,6.8162,6.8159,6.8156,6.828,6.8287,6.8294,0,0,0,0,0,0,0,0,0,0,0,0,0,6.7909,6.7791,6.807,6.807,6.8072,6.8198,6.8201,6.8203,6.8166,6.8162,6.8158,6.8155,6.8278,6.8286,6.8295,6.8427,0,0,6.8321,6.8325,0,0,0,0,0,0,0,0,6.7902,6.792,6.8069,6.8071,6.8072,6.8162,6.8145,6.8278,6.8167,6.813,6.8157,6.8153,6.8245,6.8256,6.8288,6.8432,6.8438,6.8322,6.8327,6.8331,6.8333,0,0,0,0,0,0,0,6.7894,6.7914,6.8121,6.8071,6.8073,6.8061,6.8075,6.817,6.8208,6.8133,6.8131,6.8147,6.8245,6.828,6.8291,6.8439,6.8322,6.8329,6.8335,6.8338,6.8693,6.8697,0,0,0,0,0,0,6.7885,6.7907,6.8117,6.8125,6.7976,6.807,6.8085,6.8137,6.8207,6.8214,6.815,6.8145,6.8267,6.8281,6.8295,6.8451,6.8331,6.8339,6.8344,6.8689,6.8694,6.8699,0,0,0,0,0,0,6.7879,6.7904,6.8112,6.8015,6.8041,6.8079,6.8138,6.8142,6.8177,6.822,6.8225,6.818,6.8265,6.8283,6.8394,6.8455,6.8343,6.8351,6.8684,6.869,6.8696,6.8765,0,0,0,0,0,0,6.7871,6.7902,6.7955,6.8017,6.8046,6.8211,6.8142,6.8147,6.8193,6.8187,6.8249,6.8255,6.8263,6.8381,6.8402,6.8465,6.8357,6.8678,6.8687,6.8694,6.8758,6.8773,6.8787,0,0,0,0,0,6.7861,6.7968,6.7958,6.7983,6.8114,6.8215,6.8231,6.824,6.8198,6.825,6.8276,6.8253,6.8445,6.8393,6.8416,6.8482,6.8674,6.8684,6.8694,6.8751,6.877,6.8786,0,0,0,0,0,0,6.791,6.7977,6.7965,6.8097,6.8151,6.8208,6.8274,6.826,6.8325,6.8317,6.8323,6.8337,6.8449,6.8477,6.8417,6.8611,6.8553,6.8568,6.8589,6.8607,6.8622,6.8611,6.8364,0,0,0,0,0,6.7937,6.8017,6.8069,6.818,6.8208,6.8236,6.8281,6.8283,6.8337,6.8359,6.8394,6.8446,6.8517,6.8564,6.8633,6.8762,6.8773,6.8819,6.8833,6.8845,6.8857,6.8923,6.8943,6.873,6.873,6.873,0,0,6.7992,6.8038,6.8088,6.8191,6.8233,6.8311,6.8255,6.8342,6.8399,6.8371,6.8478,6.8505,6.8563,6.8682,6.8737,6.8709,6.8918,6.8857,6.8866,6.8872,6.8935,6.8955,6.8973,6.8736,6.8735,6.8734,0,0,6.8133,6.8177,6.8273,6.8316,6.838,6.8398,6.8421,6.8481,6.8498,6.8605,6.8585,6.8652,6.8776,6.8817,6.8854,6.9007,6.8987,6.9029,6.9104,6.9169,6.9186,6.92,6.9252,6.927,6.9041,6.9042,6.9042,0,6.8192,6.8313,6.8323,6.8411,6.8455,6.8436,6.853,6.8571,6.8653,6.8682,6.8651,6.8804,6.8842,6.8969,6.9006,6.9038,6.9061,6.9022,6.9183,6.9198,6.9212,6.9261,6.928,6.9046,6.9046,6.9045,6.9045,0,6.8381,6.8465,6.8534,6.8615,6.8667,6.8758,6.8779,6.883,6.8827,6.8847,6.8954,6.8999,6.9074,6.9105,6.9103,6.9231,6.9211,6.9181,6.9123,6.9236,6.9282,6.9301,6.9053,6.9051,6.905,6.9049,0,0,6.8557,6.8642,6.8667,6.8702,6.8771,6.8834,6.8922,6.8998,6.9039,6.9096,6.9167,6.9272,6.9244,6.9286,6.9288,6.9346,6.9459,6.9308,6.9309,6.9332,6.9599,6.9619,6.9641,6.9447,6.9451,6.9454,6.9593,0,6.87,6.8858,6.8869,6.901,6.9084,6.9066,6.9142,6.919,6.9211,6.9275,6.9296,6.9369,6.9329,6.9354,6.941,6.9434,6.9513,6.9424,6.951,6.9513,6.9494,6.9665,6.9688,6.9817,6.9611,6.9614,6.9617,0,6.8889,6.8953,6.9102,6.9157,6.9189,6.9258,6.9326,6.9389,6.9442,6.9452,6.9499,6.9492,6.9578,6.9518,6.9635,6.9574,6.961,6.9626,6.9632,6.9638,6.957,6.9673,6.9859,6.9877,6.9645,6.9643,6.9641,0,6.8998,6.9121,6.9225,6.9257,6.9325,6.9373,6.9403,6.9452,6.9496,6.9555,6.9582,6.965,6.9686,6.9737,6.9747,6.9704,6.9863,6.9805,6.9871,6.9871,6.9904,6.9901,7.0094,6.9931,6.9931,6.9931,6.993,0,6.9156,6.9247,6.9275,6.9339,6.9439,6.9448,6.9546,6.9572,6.9616,6.9682,6.967,6.9731,6.9742,6.9805,6.9814,6.9907,6.9924,6.9932,6.9933,6.9932,6.993,6.9953,6.9944,6.9936,6.9935,6.9934,6.9933,0,6.9294,6.9317,6.9429,6.9484,6.95,6.957,6.9616,6.9675,6.9694,6.9777,6.9797,6.9826,6.9899,6.9915,7.0001,7.0007,7.0116,7.011,7.0099,7.0098,7.0162,7.0154,7.0375,7.0403,7.0224,7.0225,7.0227,0,6.9392,6.9462,6.9524,6.9569,6.9601,6.9673,6.9717,6.9729,6.9775,6.9839,6.989,6.9962,7.002,7.0137,7.0163,7.0229,7.0221,7.0294,7.0231,7.0227,7.0218,7.0213,7.0218,7.0305,7.0307,7.0309,7.031,0,6.9562,6.957,6.9636,6.9706,6.976,6.9815,6.9867,6.9903,6.9921,6.9973,7.0049,7.0094,7.0182,7.0252,7.0317,7.0344,7.0329,7.033,7.0348,7.0347,7.0337,7.034,7.0129,7.0324,7.0323,7.0322,7.0321,7.032,6.9681,6.9741,6.9794,6.9867,6.9908,6.9956,7.0014,7.004,7.0104,7.0178,7.018,7.0262,7.0309,7.0395,7.0426,7.0487,7.0464,7.0491,7.0498,7.0504,7.0508,7.0329,7.0499,7.0499,7.0499,7.0498,7.0498,0,6.9848,6.9881,6.9949,7.0022,7.0079,7.0063,7.0119,7.0166,7.0239,7.0286,7.0343,7.0428,7.0495,7.0527,7.0593,7.0636,7.063,7.0652,7.0648,7.0654,7.0527,7.0503,7.0656,7.0656,7.0656,7.0656,7.0655,7.0655,6.9942,7.0041,7.0054,7.0172,7.0203,7.0285,7.0317,7.0361,7.0398,7.0494,7.0551,7.0572,7.0611,7.068,7.074,7.0747,7.077,7.0795,7.0799,7.0679,7.0663,7.0648,7.0625,7.0801,7.0801,7.092,7.0922,7.0922]}]]